Time,TemperatureF,DewpointF,PressureIn,WindDirection,WindDirectionDegrees,WindSpeedMPH,WindSpeedGustMPH,Humidity,HourlyPrecipIn,Conditions,Clouds,dailyrainin,SolarRadiationWatts/m^2,SoftwareType,DateUTC
2013-09-05 00:02:00,68.0,68.0,-100.00,SSE,168,0.0,2.0,100,0.00,,,0.00,0.000000,,2013-09-05 04:02:00,
2013-09-05 00:44:00,68.0,68.0,-100.00,SSE,168,0.0,2.0,100,0.00,,,0.00,0.000000,,2013-09-05 04:44:00,
2013-09-05 00:53:00,68.0,68.0,-100.00,SSE,168,0.0,2.0,100,0.00,,,0.00,0.000000,,2013-09-05 04:53:00,
2013-09-05 01:02:00,67.0,67.0,-100.00,North,2,0.0,1.0,100,0.00,,,0.00,0.000000,,2013-09-05 05:02:00,
2013-09-05 01:23:00,67.0,67.0,-100.00,North,2,0.0,1.0,100,0.00,,,0.00,0.000000,,2013-09-05 05:23:00,
2013-09-05 01:34:00,67.0,67.0,-100.00,North,2,0.0,1.0,100,0.00,,,0.00,0.000000,,2013-09-05 05:34:00,
2013-09-05 01:43:00,67.0,67.0,-100.00,North,2,0.0,1.0,100,0.00,,,0.00,0.000000,,2013-09-05 05:43:00,
2013-09-05 01:52:00,67.0,67.0,-100.00,North,2,0.0,1.0,100,0.00,,,0.00,0.000000,,2013-09-05 05:52:00,
2013-09-05 02:42:00,67.0,67.0,-100.00,North,2,1.0,2.0,100,0.00,,,0.00,0.000000,,2013-09-05 06:42:00,
2013-09-05 02:52:00,67.0,67.0,-100.00,North,2,1.0,2.0,100,0.00,,,0.00,0.000000,,2013-09-05 06:52:00,
2013-09-05 03:01:00,67.0,67.0,-100.00,North,2,1.0,2.0,100,0.00,,,0.00,0.000000,,2013-09-05 07:01:00,
2013-09-05 03:02:00,66.0,66.0,-100.00,North,349,1.0,2.0,100,0.00,,,0.00,0.000000,,2013-09-05 07:02:00,
2013-09-05 03:23:00,66.0,66.0,-100.00,North,349,1.0,2.0,100,0.00,,,0.00,0.000000,,2013-09-05 07:23:00,
2013-09-05 03:32:00,66.0,66.0,-100.00,North,349,1.0,2.0,100,0.00,,,0.00,0.000000,,2013-09-05 07:32:00,
2013-09-05 03:42:00,66.0,66.0,-100.00,North,349,1.0,2.0,100,0.00,,,0.00,0.000000,,2013-09-05 07:42:00,
2013-09-05 03:52:00,66.0,66.0,-100.00,North,349,1.0,2.0,100,0.00,,,0.00,0.000000,,2013-09-05 07:52:00,
2013-09-05 04:02:00,65.0,65.0,-100.00,South,189,0.0,2.0,100,0.00,,,0.00,0.000000,,2013-09-05 08:02:00,
2013-09-05 04:22:00,65.0,65.0,-100.00,South,189,0.0,2.0,100,0.00,,,0.00,0.000000,,2013-09-05 08:22:00,
2013-09-05 04:32:00,65.0,65.0,-100.00,South,189,0.0,2.0,100,0.00,,,0.00,0.000000,,2013-09-05 08:32:00,
2013-09-05 04:42:00,65.0,65.0,-100.00,South,189,0.0,2.0,100,0.00,,,0.00,0.000000,,2013-09-05 08:42:00,
2013-09-05 04:52:00,65.0,65.0,-100.00,South,189,0.0,2.0,100,0.00,,,0.00,0.000000,,2013-09-05 08:52:00,
2013-09-05 05:02:00,64.0,64.0,-100.00,North,1,1.0,3.0,100,0.00,,,0.00,0.000000,,2013-09-05 09:02:00,
2013-09-05 05:22:00,64.0,64.0,-100.00,North,1,1.0,3.0,100,0.00,,,0.00,0.000000,,2013-09-05 09:22:00,
2013-09-05 05:33:00,64.0,64.0,-100.00,North,1,1.0,3.0,100,0.00,,,0.00,0.000000,,2013-09-05 09:33:00,
2013-09-05 05:43:00,64.0,64.0,-100.00,North,1,1.0,3.0,100,0.00,,,0.00,0.000000,,2013-09-05 09:43:00,
2013-09-05 05:54:00,64.0,64.0,-100.00,North,1,1.0,3.0,100,0.00,,,0.00,0.000000,,2013-09-05 09:54:00,
2013-09-05 06:02:00,65.0,65.0,-100.00,NNW,343,0.0,2.0,100,0.00,,,0.00,0.000000,,2013-09-05 10:02:00,
2013-09-05 06:43:00,65.0,65.0,-100.00,NNW,343,0.0,2.0,100,0.00,,,0.00,0.000000,,2013-09-05 10:43:00,
2013-09-05 06:53:00,65.0,65.0,-100.00,NNW,343,0.0,2.0,100,0.00,,,0.00,0.000000,,2013-09-05 10:53:00,
2013-09-05 07:22:00,64.0,64.0,-100.00,SE,131,0.0,0.0,100,0.00,,,0.00,0.000000,,2013-09-05 11:22:00,
2013-09-05 07:34:00,64.0,64.0,-100.00,SE,131,0.0,0.0,100,0.00,,,0.00,0.000000,,2013-09-05 11:34:00,
2013-09-05 07:43:00,64.0,64.0,-100.00,SE,131,0.0,0.0,100,0.00,,,0.00,0.000000,,2013-09-05 11:43:00,
2013-09-05 07:52:00,64.0,64.0,-100.00,SE,131,0.0,0.0,100,0.00,,,0.00,0.000000,,2013-09-05 11:52:00,
2013-09-05 08:01:00,64.0,64.0,-100.00,SE,131,0.0,0.0,100,0.00,,,0.00,0.000000,,2013-09-05 12:01:00,
2013-09-05 08:22:00,64.0,64.0,-100.00,East,83,0.0,1.0,100,0.00,,,0.00,14.000000,,2013-09-05 12:22:00,
2013-09-05 08:32:00,64.0,64.0,-100.00,East,83,0.0,1.0,100,0.00,,,0.00,14.000000,,2013-09-05 12:32:00,
2013-09-05 08:42:00,64.0,64.0,-100.00,East,83,0.0,1.0,100,0.00,,,0.00,14.000000,,2013-09-05 12:42:00,
2013-09-05 08:52:00,64.0,64.0,-100.00,East,83,0.0,1.0,100,0.00,,,0.00,14.000000,,2013-09-05 12:52:00,
2013-09-05 09:01:00,64.0,64.0,-100.00,East,83,0.0,1.0,100,0.00,,,0.00,14.000000,,2013-09-05 13:01:00,
2013-09-05 09:02:00,66.0,66.0,-100.00,SSE,159,0.0,2.0,100,0.00,,,0.00,55.000000,,2013-09-05 13:02:00,
2013-09-05 09:42:00,66.0,66.0,-100.00,SSE,159,0.0,2.0,100,0.00,,,0.00,55.000000,,2013-09-05 13:42:00,
2013-09-05 09:53:00,66.0,66.0,-100.00,SSE,159,0.0,2.0,100,0.00,,,0.00,55.000000,,2013-09-05 13:53:00,
2013-09-05 10:02:00,73.0,73.0,-100.00,NNE,21,0.0,1.0,100,0.00,,,0.00,182.000000,,2013-09-05 14:02:00,
2013-09-05 10:42:00,73.0,73.0,-100.00,NNE,21,0.0,1.0,100,0.00,,,0.00,182.000000,,2013-09-05 14:42:00,
2013-09-05 10:52:00,73.0,73.0,-100.00,NNE,21,0.0,1.0,100,0.00,,,0.00,182.000000,,2013-09-05 14:52:00,
2013-09-05 12:02:00,85.0,71.0,-100.00,NNW,335,2.0,4.0,64,0.01,,,0.01,607.000000,,2013-09-05 16:02:00,
2013-09-05 12:24:00,85.0,71.0,-100.00,NNW,335,2.0,4.0,64,0.01,,,0.01,607.000000,,2013-09-05 16:24:00,
2013-09-05 12:33:00,85.0,71.0,-100.00,NNW,335,2.0,4.0,64,0.01,,,0.01,607.000000,,2013-09-05 16:33:00,
2013-09-05 12:43:00,85.0,71.0,-100.00,NNW,335,2.0,4.0,64,0.01,,,0.01,607.000000,,2013-09-05 16:43:00,
2013-09-05 12:54:00,85.0,71.0,-100.00,NNW,335,2.0,4.0,64,0.01,,,0.01,607.000000,,2013-09-05 16:54:00,
2013-09-05 13:02:00,85.0,70.0,-100.00,NNW,347,2.0,4.0,61,0.00,,,0.01,698.000000,,2013-09-05 17:02:00,
2013-09-05 13:43:00,85.0,70.0,-100.00,NNW,347,2.0,4.0,61,0.00,,,0.01,698.000000,,2013-09-05 17:43:00,
2013-09-05 13:52:00,85.0,70.0,-100.00,NNW,347,2.0,4.0,61,0.00,,,0.01,698.000000,,2013-09-05 17:52:00,
2013-09-05 14:02:00,85.0,70.0,-100.00,NNE,33,2.0,4.0,62,0.00,,,-99.99,584.000000,,2013-09-05 18:02:00,
2013-09-05 14:22:00,85.0,70.0,-100.00,NNE,33,2.0,4.0,62,0.00,,,-99.99,584.000000,,2013-09-05 18:22:00,
2013-09-05 14:32:00,85.0,70.0,-100.00,NNE,33,2.0,4.0,62,0.00,,,-99.99,584.000000,,2013-09-05 18:32:00,
2013-09-05 14:43:00,85.0,70.0,-100.00,NNE,33,2.0,4.0,62,0.00,,,-99.99,584.000000,,2013-09-05 18:43:00,
2013-09-05 14:52:00,85.0,70.0,-100.00,NNE,33,2.0,4.0,62,0.00,,,-99.99,584.000000,,2013-09-05 18:52:00,
2013-09-05 15:02:00,87.0,65.0,-100.00,SW,228,1.0,4.0,49,0.00,,,0.01,706.000000,,2013-09-05 19:02:00,
2013-09-05 15:22:00,87.0,65.0,-100.00,SW,228,1.0,4.0,49,0.00,,,0.01,706.000000,,2013-09-05 19:22:00,
2013-09-05 15:32:00,87.0,65.0,-100.00,SW,228,1.0,4.0,49,0.00,,,0.01,706.000000,,2013-09-05 19:32:00,
2013-09-05 15:42:00,87.0,65.0,-100.00,SW,228,1.0,4.0,49,0.00,,,0.01,706.000000,,2013-09-05 19:42:00,
2013-09-05 15:52:00,87.0,65.0,-100.00,SW,228,1.0,4.0,49,0.00,,,0.01,706.000000,,2013-09-05 19:52:00,
2013-09-05 16:02:00,86.0,68.0,-100.00,NW,323,1.0,3.0,56,0.00,,,0.01,513.000000,,2013-09-05 20:02:00,
2013-09-05 16:43:00,86.0,68.0,-100.00,NW,323,1.0,3.0,56,0.00,,,0.01,513.000000,,2013-09-05 20:43:00,
2013-09-05 16:52:00,86.0,68.0,-100.00,NW,323,1.0,3.0,56,0.00,,,0.01,513.000000,,2013-09-05 20:52:00,
2013-09-05 17:02:00,84.0,70.0,-100.00,SW,217,1.0,3.0,64,0.00,,,0.01,420.000000,,2013-09-05 21:02:00,
2013-09-05 17:44:00,84.0,70.0,-100.00,SW,217,1.0,3.0,64,0.00,,,0.01,420.000000,,2013-09-05 21:44:00,
2013-09-05 17:54:00,84.0,70.0,-100.00,SW,217,1.0,3.0,64,0.00,,,0.01,420.000000,,2013-09-05 21:54:00,
2013-09-05 18:02:00,84.0,69.0,-100.00,North,2,1.0,2.0,61,0.00,,,0.01,193.000000,,2013-09-05 22:02:00,
2013-09-05 18:24:00,84.0,69.0,-100.00,North,2,1.0,2.0,61,0.00,,,0.01,193.000000,,2013-09-05 22:24:00,
2013-09-05 18:33:00,84.0,69.0,-100.00,North,2,1.0,2.0,61,0.00,,,0.01,193.000000,,2013-09-05 22:33:00,
2013-09-05 18:43:00,84.0,69.0,-100.00,North,2,1.0,2.0,61,0.00,,,0.01,193.000000,,2013-09-05 22:43:00,
2013-09-05 18:53:00,84.0,69.0,-100.00,North,2,1.0,2.0,61,0.00,,,0.01,193.000000,,2013-09-05 22:53:00,
2013-09-05 19:02:00,80.0,72.0,-100.00,NNW,342,0.0,1.0,77,0.00,,,0.01,111.000000,,2013-09-05 23:02:00,
2013-09-05 19:22:00,80.0,72.0,-100.00,NNW,342,0.0,1.0,77,0.00,,,0.01,111.000000,,2013-09-05 23:22:00,
2013-09-05 19:34:00,80.0,72.0,-100.00,NNW,342,0.0,1.0,77,0.00,,,0.01,111.000000,,2013-09-05 23:34:00,
2013-09-05 19:42:00,80.0,72.0,-100.00,NNW,342,0.0,1.0,77,0.00,,,0.01,111.000000,,2013-09-05 23:42:00,
2013-09-05 19:53:00,80.0,72.0,-100.00,NNW,342,0.0,1.0,77,0.00,,,0.01,111.000000,,2013-09-05 23:53:00,
2013-09-05 20:02:00,78.0,69.0,-100.00,SW,224,2.0,4.0,73,0.00,,,0.01,33.000000,,2013-09-06 00:02:00,
2013-09-05 20:22:00,78.0,69.0,-100.00,SW,224,2.0,4.0,73,0.00,,,0.01,33.000000,,2013-09-06 00:22:00,
2013-09-05 20:33:00,78.0,69.0,-100.00,SW,224,2.0,4.0,73,0.00,,,0.01,33.000000,,2013-09-06 00:33:00,
2013-09-05 20:42:00,78.0,69.0,-100.00,SW,224,2.0,4.0,73,0.00,,,0.01,33.000000,,2013-09-06 00:42:00,
2013-09-05 20:52:00,78.0,69.0,-100.00,SW,224,2.0,4.0,73,0.00,,,0.01,33.000000,,2013-09-06 00:52:00,
2013-09-05 21:02:00,74.0,73.0,-100.00,NE,38,1.0,4.0,98,0.00,,,0.01,0.000000,,2013-09-06 01:02:00,
2013-09-05 21:42:00,74.0,73.0,-100.00,NE,38,1.0,4.0,98,0.00,,,0.01,0.000000,,2013-09-06 01:42:00,
2013-09-05 21:52:00,74.0,73.0,-100.00,NE,38,1.0,4.0,98,0.00,,,0.01,0.000000,,2013-09-06 01:52:00,
2013-09-05 22:02:00,72.0,72.0,-100.00,ENE,68,1.0,3.0,100,0.00,,,0.01,0.000000,,2013-09-06 02:02:00,
2013-09-05 22:22:00,72.0,72.0,-100.00,ENE,68,1.0,3.0,100,0.00,,,0.01,0.000000,,2013-09-06 02:22:00,
2013-09-05 22:33:00,72.0,72.0,-100.00,ENE,68,1.0,3.0,100,0.00,,,0.01,0.000000,,2013-09-06 02:33:00,
2013-09-05 22:42:00,72.0,72.0,-100.00,ENE,68,1.0,3.0,100,0.00,,,0.01,0.000000,,2013-09-06 02:42:00,
2013-09-05 22:52:00,72.0,72.0,-100.00,ENE,68,1.0,3.0,100,0.00,,,0.01,0.000000,,2013-09-06 02:52:00,
2013-09-05 23:02:00,70.0,70.0,-100.00,North,352,1.0,1.0,100,0.00,,,0.01,0.000000,,2013-09-06 03:02:00,
2013-09-05 23:22:00,70.0,70.0,-100.00,North,352,1.0,1.0,100,0.00,,,0.01,0.000000,,2013-09-06 03:22:00,
2013-09-05 23:34:00,70.0,70.0,-100.00,North,352,1.0,1.0,100,0.00,,,0.01,0.000000,,2013-09-06 03:34:00,
2013-09-05 23:44:00,70.0,70.0,-100.00,North,352,1.0,1.0,100,0.00,,,0.01,0.000000,,2013-09-06 03:44:00,
2013-09-05 23:55:00,70.0,70.0,-100.00,North,352,1.0,1.0,100,0.00,,,0.01,0.000000,,2013-09-06 03:55:00,